Other Public Products
Issued by NWS Grand Forks, ND

Home | Current Version | Previous Version | Text Only | Print | Product List | Glossary On
Versions: 1 2 3 4 5 6 7 8 9 10 11 12 13 14 15 16 17 18 19 20 21 22 23 24 25 26 27 28 29 30 31 32 33 34 35 36 37 38 39 40 41 42 43 44 45 46 47 48 49 50
000
FPUS83 KFGF 130031
OPUFGF
PRAIRIE TO PINES WEATHER ROUNDUP
NATIONAL WEATHER SERVICE EASTERN NORTH DAKOTA/GRAND FORKS ND
600 PM CST FRI FEB 12 2016

 **SATELLITE DATA USED TO AUGMENT SKY COVER AT AUTOMATED STATIONS**
 *****  WEATHER ACROSS EASTERN NORTH DAKOTA  *****

CITY           SKY/WX    TMP DP  RH WIND       PRES   REMARKS
GRAND FORKS    CLOUDY    -1 -10  65 NW8       30.68R WCI -15
6HR MIN TEMP:  -2; 6HR MAX TEMP:   3;

GRAND FORKS AF CLOUDY    -4 -13  65 NW7       30.67R WCI -18
GRAND CITY NWS NOT AVBL
BUXTON           N/A     -2  -8  75 NW7         N/A  WCI -16
DEVILS LAKE    CLOUDY    -9 -14  78 N5        30.62F WCI -20
6HR MIN TEMP:  -9; 6HR MAX TEMP:  -4;

FARGO          CLOUDY     0  -9  65 N9        30.68R WCI -15
6HR MIN TEMP:   0; 6HR MAX TEMP:   2;

WAHPETON ARPT  CLOUDY     0  -8  71 NW10      30.67R WCI -17
$$

 *****  WEATHER ACROSS CENTRAL AND WESTERN NORTH DAKOTA  *****

CITY           SKY/WX    TMP DP  RH WIND       PRES   REMARKS
JAMESTOWN      CLOUDY    -4 -12  68 N6        30.60F WCI -16
6HR MIN TEMP:  -4; 6HR MAX TEMP:   2;

BISMARCK       CLEAR      8  -3  61 E7        30.58R WCI  -3
6HR MIN TEMP:   8; 6HR MAX TEMP:  14;

MINOT          CLOUDY     4  -8  57 NE5       30.54F WCI  -5
6HR MIN TEMP:   4; 6HR MAX TEMP:  11;

MINOT AFB      CLOUDY     4  -7  60 CALM      30.54F
6HR MIN TEMP:   4; 6HR MAX TEMP:  14;

GARRISON         N/A      6  -3  66 SE5       30.53R WCI  -3
6HR MIN TEMP:   4; 6HR MAX TEMP:  12;

WILLISTON      PTCLDY    13   1  59 E12       30.44F WCI  -1
6HR MIN TEMP:   9; 6HR MAX TEMP:  15;

DICKINSON      CLOUDY    10   1  67 SE14      30.40F WCI  -6
6HR MIN TEMP:   8; 6HR MAX TEMP:  12;

HETTINGER      CLOUDY    13   3  64 SE13      30.44R WCI  -2
6HR MIN TEMP:  12; 6HR MAX TEMP:  14;

$$

 *****  OTHER OBSERVATIONS NORTHEAST NORTH DAKOTA  *****

CITY           SKY/WX    TMP DP  RH WIND       PRES   REMARKS
WALHALLA       FAIR      -2 -13  60 NW5       30.68R WCI -12
LANGDON        FAIR     -17 -22  76 W5        30.59F WCI -29
CAVALIER       FAIR      -2 -11  65 N5        30.68R WCI -12
GRAFTON        FAIR      -4 -11  71 N7        30.70S WCI -18
CANDO          FAIR      -8 N/A N/A CALM      30.63F
FORT TOTTEN      N/A     -7 -15  69 CALM      29.95S
ROLLA          FAIR     -11 -17  77 CALM      30.58R
RUGBY          FAIR       0  -8  71 S6        30.58F WCI -12
 ***** THE ABOVE OBSERVATIONS ARE NON NWS ARE NOT QUALITY
        CONTROLLED AND MAY MIS-REPORT RAIN FOR SNOW...
$$

 *****  OTHER OBSERVATIONS SOUTHEAST NORTH DAKOTA *****

CITY           SKY/WX    TMP DP  RH WIND       PRES   REMARKS
COOPERSTOWN    NOT AVBL
VALLEY CITY    FAIR      -8 -15  71 NW6       30.64S WCI -21
OAKES          FAIR      -2  -9  71 N6        30.63F WCI -14
GWINNER        FAIR      -6 -11  77 NW5       30.65S WCI -17
SHEYENNE NWR     N/A     -5 -16  59 N6        29.95S WCI -18
BUFFALO          N/A     -8 -15  69 N6          N/A  WCI -21
WYNDMERE         N/A     -2  -9  71 NW7         N/A  WCI -16
 ***** THE ABOVE OBSERVATIONS ARE NON NWS ARE NOT QUALITY
       CONTROLLED AND MAY MIS-REPORT RAIN FOR SNOW...
$$

  *****  WEATHER ACROSS NORTHERN MINNESOTA  *****

CITY           SKY/WX    TMP DP  RH WIND       PRES   REMARKS
FLAG ISLAND    CLOUDY    -9 -18  64 NW10      30.58R WCI -28
WARROAD        CLOUDY    -8 -18  59 NW8       30.59S WCI -23
ROSEAU         CLOUDY    -8 -17  65 W9        30.61S WCI -25
HALLOCK        CLOUDY    -6 -15  65 N9        30.67S WCI -22
THF RVR FALLS  PTCLDY    -8 -18  59 NW10      30.62F WCI -26
6HR MIN TEMP:  -8; 6HR MAX TEMP:  -4;

HALSTAD          N/A     -3  -8  79 N6          N/A  WCI -15
FOSSTON          N/A    -11 -17  77 NW9       30.60S WCI -29
BAUDETTE       CLOUDY    -6 -20  50 NW14      30.55R WCI -26
6HR MIN TEMP:  -9; 6HR MAX TEMP:  -3;

WASKISH        CLOUDY    -8 -17  65 W9        30.55S WCI -25
CROOKSTON      CLOUDY    -6 -11  77 N9        30.68R WCI -22
$$
  *****  WEATHER ACROSS CENTRAL AND WEST MINNESOTA  *****

CITY           SKY/WX    TMP DP  RH WIND       PRES   REMARKS
BEMIDJI        PTCLDY    -7 -15  69 NW12      30.54R WCI -26
PARK RAPIDS    PTCLDY    -4 -14  62 NW10      30.52S WCI -21
6HR MIN TEMP:  -4; 6HR MAX TEMP:   3;

WADENA         CLOUDY    -6 -15  65 NW10      30.55R WCI -23
DETROIT LAKES  CLOUDY    -6 -11  77 NW10      30.60R WCI -23
MOORHEAD       CLOUDY    -2  -9  71 N7        30.68R WCI -16
FERGUS FALLS   PTCLDY    -2  -9  71 NW12      30.67R WCI -20
ELBOW LAKE     FAIR      -1  -8  71 NW8       30.62R WCI -16
6HR MIN TEMP:  -1; 6HR MAX TEMP:   2;

MORRIS MN      PTCLDY     1  -8  66 NW12      30.61R WCI -15
STAPLES        CLOUDY    -2 -15  55 NW9       30.54R WCI -18
WHEATON        CLOUDY     0  -8  71 NW10      30.67S WCI -17
$$
  *****  WEATHER ELSEWHERE ACROSS MINNESOTA  *****

CITY           SKY/WX    TMP DP  RH WIND       PRES   REMARKS
DULUTH         PTCLDY    -1 -18  44 NW15G24   30.41R WCI -21
6HR MIN TEMP:  -2; 6HR MAX TEMP:   1;

INTRNTL FALLS  PTCLDY    -7 -19  56 NW10      30.51R WCI -25
6HR MIN TEMP:  -7; 6HR MAX TEMP:  -3;

ELY            CLEAR     -8 -17  65 NW6       30.41R WCI -21
CLOQUET        CLEAR      0 -18  42 W9        30.44R WCI -16
BRAINERD       PTCLDY     2 -15  45 NW10      30.52R WCI -14
6HR MIN TEMP:   2; 6HR MAX TEMP:   6;

HIBBING        PTCLDY    -5 -19  51 NW13      30.45R WCI -24
6HR MIN TEMP:  -5; 6HR MAX TEMP:  -1;

ALEXANDRIA     CLOUDY    -1 -13  56 N10       30.56R WCI -17
6HR MIN TEMP:  -1; 6HR MAX TEMP:   3;

SAINT CLOUD    PTCLDY     3 -10  54 NW12      30.54R WCI -13
6HR MIN TEMP:   3; 6HR MAX TEMP:   8;

MINNEAPOLIS    CLEAR      7 -12  41 NW13      30.54R WCI  -9
6HR MIN TEMP:   7; 6HR MAX TEMP:  11;

$$

  *****  WEATHER ACROSS SOUTH DAKOTA  *****

CITY           SKY/WX    TMP DP  RH WIND       PRES   REMARKS
SIOUX FALLS    CLOUDY     6  -6  57 N10       30.58R WCI  -9
6HR MIN TEMP:   6; 6HR MAX TEMP:  11;

BROOKINGS      CLOUDY     1  -8  66 N10       30.57R WCI -15
WATERTOWN      CLOUDY    -2 -11  65 N9        30.56R WCI -18
6HR MIN TEMP:  -2; 6HR MAX TEMP:   5;

HURON          CLEAR      6  -3  66 N8        30.62S WCI  -7
6HR MIN TEMP:   6; 6HR MAX TEMP:  13;

SISSETON         N/A     -3 -10  72 N9        30.64R WCI -19
ABERDEEN       CLEAR      4  -7  60 N8        30.64S WCI  -9
6HR MIN TEMP:   4; 6HR MAX TEMP:   9;

MITCHELL       PTCLDY     8   0  69 N8        30.63R WCI  -4
PIERRE         CLOUDY    17   9  70 E13       30.53R WCI   4
6HR MIN TEMP:  17; 6HR MAX TEMP:  23;

MOBRIDGE       MOCLDY    15   5  64 E6        30.53R WCI   6
RAPID CITY     CLOUDY    23  21  92 SE15      30.35S FOG     WCI  10
6HR MIN TEMP:  24; 6HR MAX TEMP:  27; 6HR PCP: TRACE;

$$

  *****  SOME WEATHER IN NEARBY STATES *****

CITY           SKY/WX    TMP DP  RH WIND       PRES   REMARKS
GLASGOW MT     LGT SNOW  17  13  84 E20       30.26F FOG     WCI   1
6HR MIN TEMP:  15; 6HR MAX TEMP:  18; 6HR PCP: TRACE;

GREAT FALLS MT MOCLDY    56  34  43 SW15      30.02F
6HR MIN TEMP:  39; 6HR MAX TEMP:  59;

CHEYENNE WY    CLEAR     45  27  49 SW15      30.24R
6HR MIN TEMP:  45; 6HR MAX TEMP:  52;

SCOTTSBLUFF NE CLOUDY    35  30  82 SE16      30.29S
6HR MIN TEMP:  35; 6HR MAX TEMP:  40;

OMAHA NE       CLOUDY    16   5  62 N13       30.60R WCI   2
6HR MIN TEMP:  16; 6HR MAX TEMP:  25;

DES MOINES IA  CLOUDY    13   0  56 NW18      30.54R WCI  -4
6HR MIN TEMP:  13; 6HR MAX TEMP:  20;

DAVENPORT IA   CLEAR     13   0  56 NW25G32   30.42R WCI  -7
6HR MIN TEMP:  13; 6HR MAX TEMP:  23;

CHICAGO IL     PTCLDY    17  -2  43 N20       30.26R WCI   1
6HR MIN TEMP:  17; 6HR MAX TEMP:  23;

EAU CLAIRE WI  CLEAR      4 -15  41 NW9       30.46R WCI -10
6HR MIN TEMP:   4; 6HR MAX TEMP:  10;

LA CROSSE WI   PTCLDY     8  -9  45 NW16      30.46R WCI -10
6HR MIN TEMP:   8; 6HR MAX TEMP:  16; 6HR PCP: TRACE;

$$

  *****  SOME NATIONAL WEATHER *****

CITY           SKY/WX    TMP DP  RH WIND       PRES   REMARKS
LA GUARDIA NY  CLOUDY    25   4  40 SW9       30.00F WCI  15       C1F1C2F2C3F3C4F4C5F5C6F6C7F7C8F8C9F9CaFaCbFbCcFcCdFdCe!


USA.gov is the U.S. government's official web portal to all federal, state and local government web resources and services.